Volver al catálogo

ORBCOMM FM 15

ActivoComunicacionesLEO
NORAD 25418·PAYLOAD·🇺🇸 United States

Lanzado Aug 2, 1998 desde Cape Canaveral Space Force Station

Loading…

Próximos Pases (próximas 24 horas)

TLE

ActualizadoSource: Space-Track

Época: Sep 13, 2026, 11:52 UTC

1 25418U 98046F   26256.49488882  .00000602  00000-0  23523-3 0  9995
2 25418  44.9953 184.1856 0004540  32.8527 327.2603 14.39819564469551

Sigue ORBCOMM FM 15 en tiempo real con AllMySat

Download on the App Store